GFSNGP_prec_cthk_057.txt.gz
RH
50 54 55 58 55 50 46 46 58 49 53 46 51 52 49 49 47 47 45 45 39 35 31 27 27 31 42 50 47 50 60 61 64 64 65 61 57 56 63 72 75 73 63 55
55 55 58 62 54 55 51 49 54 56 60 51 43 44 47 41 47 45 45 47 43 43 37 38 37 31 29 33 40 43 44 48 49 50 49 54 60 69 76 72 69 58 50 45
60 60 60 63 51 57 55 50 46 51 43 43 42 48 50 48 46 46 44 41 41 40 40 41 39 32 26 32 36 39 45 44 46 50 59 65 67 66 65 58 52 45 41 40
77 69 75 48 46 50 53 53 45 48 47 45 43 44 46 47 44 40 43 42 35 30 32 36 41 48 48 49 46 49 47 49 56 63 65 62 58 57 52 49 43 37 37 41
77 75 55 48 44 46 51 49 46 47 47 42 39 44 42 45 44 41 40 39 35 31 32 36 41 44 44 47 50 52 52 59 63 60 52 54 52 50 47 40 37 38 40 42
87 78 68 52 47 44 50 49 44 47 44 42 35 46 44 43 40 41 42 37 30 24 29 34 38 41 42 46 51 56 60 59 57 53 51 47 49 47 41 37 39 42 43 44
96 92 71 60 50 51 56 50 41 44 37 37 42 45 49 48 51 45 38 24 22 26 29 32 34 36 42 47 51 50 47 44 43 45 46 49 45 42 40 41 45 47 45 46
96 94 91 69 60 57 56 48 48 45 41 40 44 48 49 44 46 40 29 25 24 27 31 34 35 35 39 44 43 41 38 40 44 48 49 47 43 41 43 48 51 51 48 48
72 77 71 67 68 70 68 60 62 55 56 52 48 49 50 51 47 40 32 30 29 29 32 37 39 40 39 39 39 43 45 48 50 51 48 47 44 46 51 55 54 54 56 58
53 63 65 70 71 72 74 75 66 65 63 57 57 58 66 55 48 40 38 36 35 34 35 40 41 42 43 44 45 47 50 52 52 51 52 50 51 55 58 61 64 65 65 61
43 60 70 76 71 65 69 74 70 67 66 60 54 59 69 63 55 49 49 44 39 39 42 45 46 47 48 50 52 53 54 54 54 55 56 57 61 64 69 70 69 64 61 61
42 43 58 79 66 61 67 68 73 70 64 63 68 63 61 63 63 62 64 60 53 49 48 50 52 54 56 57 59 59 59 59 60 63 64 66 71 73 71 69 67 65 61 68
37 42 54 50 52 53 53 65 66 68 69 67 64 66 65 61 66 74 74 71 68 65 63 70 70 64 61 62 65 68 70 70 72 74 77 78 74 72 72 71 71 78 74 68
42 47 48 43 42 46 49 55 59 68 66 62 64 67 67 66 65 70 74 75 78 79 81 85 85 84 82 78 76 77 79 82 85 83 80 78 78 78 82 89 84 80 81 80
52 54 54 50 43 46 52 56 51 51 58 60 59 60 66 68 70 74 77 84 88 89 85 88 89 92 91 88 87 88 89 90 86 80 80 84 92 93 84 83 86 82 80 79
63 60 55 48 49 47 46 47 52 51 47 54 55 60 69 70 74 87 90 89 90 93 90 93 95 93 92 93 94 94 89 87 94 96 97 97 95 95 93 85 83 82 77 77
66 61 61 65 65 61 60 61 60 62 61 64 69 77 82 86 86 84 86 93 97 92 96 97 96 97 90 90 93 96 97 97 97 97 97 97 93 88 88 84 79 81 82 79
85 83 77 75 74 73 67 63 63 72 74 74 76 81 82 83 80 72 77 84 90 93 95 97 93 86 87 97 97 97 97 97 97 97 97 97 92 88 87 86 82 82 83 85
77 75 78 77 78 76 76 71 67 68 75 69 67 69 74 83 93 92 88 85 86 94 94 92 87 93 97 97 97 97 97 97 97 97 96 91 89 89 88 88 89 93 94 89
88 88 85 84 81 79 80 79 76 75 74 73 73 74 77 85 94 92 97 97 94 90 91 93 96 97 97 97 97 97 97 97 95 94 92 92 93 94 95 96 95 95 93 89
90 87 86 89 93 94 93 90 89 89 90 91 91 96 97 97 97 97 96 96 96 96 96 97 96 96 97 97 97 97 97 97 97 97 97 96 96 97 97 96 91 84 79 74
91 90 91 93 94 96 97 96 96 97 97 97 97 97 97 96 96 96 96 96 96 97 97 97 97 97 97 97 97 97 97 97 97 96 96 96 93 87 79 71 65 59 55 53
97 97 97 96 96 96 97 97 97 97 96 96 96 96 96 96 96 96 96 97 97 97 97 97 97 97 97 97 97 96 95 93 89 83 72 62 55 49 44 42 41 41 41 41
97 97 96 96 97 96 96 97 97 96 95 95 96 96 96 97 96 96 96 97 97 97 97 97 97 96 93 90 83 73 58 47 42 39 35 33 33 34 36 39 40 41 41 43
96 96 96 96 96 97 96 96 96 96 96 96 97 97 97 97 97 97 96 96 96 95 93 89 79 64 48 40 38 36 33 30 29 28 29 31 33 35 38 41 42 44 46 48
92 91 92 93 93 95 95 95 94 95 93 93 94 93 94 94 92 90 86 79 68 54 44 37 33 30 27 25 24 24 26 27 29 30 32 34 36 39 41 44 46 49 52 53
75 75 75 76 76 77 78 78 77 78 78 75 72 64 56 48 41 35 32 29 29 29 28 27 26 25 25 26 26 27 29 31 32 33 36 39 42 44 46 50 52 55 57 58

GFSNGP_prec_cthk_060.txt.gz
RH
56 54 55 58 58 58 56 56 56 48 42 36 44 41 53 51 52 50 49 49 41 42 41 32 25 24 28 33 37 45 58 64 63 68 62 65 72 70 63 69 72 72 76 77
60 60 55 55 59 58 56 56 55 52 46 42 44 43 49 54 54 51 50 48 44 39 42 37 37 38 36 41 43 49 52 57 59 54 54 64 61 61 64 71 74 72 74 72
72 61 63 65 46 57 60 62 58 59 48 47 46 50 45 48 49 49 49 45 47 46 43 34 29 26 26 31 32 35 43 45 49 55 53 55 59 64 73 73 74 75 70 60
91 81 84 40 50 51 56 55 55 53 50 49 49 47 40 41 49 47 45 42 43 44 38 35 31 28 27 30 36 43 48 47 50 52 52 54 58 68 76 70 65 60 56 54
98 94 68 56 51 52 59 53 50 52 54 47 48 48 41 38 37 45 46 43 39 35 37 36 33 34 33 37 40 37 41 45 52 55 55 58 67 71 66 57 52 52 53 46
95 97 96 53 57 57 58 58 51 54 56 56 50 48 49 43 36 40 41 42 45 43 40 40 39 35 39 41 43 44 44 49 53 58 64 68 65 58 50 49 50 52 48 43
88 95 89 72 64 61 67 50 54 56 55 54 54 51 48 47 46 44 44 42 42 42 41 39 34 36 39 43 41 44 49 52 54 57 60 58 53 48 47 49 51 49 43 45
79 92 96 77 70 69 72 69 66 59 56 54 49 50 50 46 45 44 44 42 48 46 42 34 30 34 39 43 46 49 54 58 60 59 53 47 44 47 53 53 52 47 47 50
65 75 69 73 72 73 71 69 64 62 60 54 56 56 53 51 55 51 44 47 47 45 45 42 35 34 35 38 41 44 50 55 52 49 48 50 51 54 56 56 55 54 55 56
74 59 59 52 60 68 74 71 68 66 61 60 62 62 63 56 54 48 51 49 48 51 49 44 40 38 39 40 43 48 50 50 51 52 54 56 58 60 61 62 63 64 63 59
66 64 57 49 54 67 70 66 70 70 69 68 67 69 70 61 63 62 59 59 60 55 51 47 42 40 41 45 48 50 51 53 55 58 61 63 65 67 68 70 71 69 67 68
63 63 60 48 35 43 61 62 63 68 74 77 74 70 71 67 69 69 66 71 68 65 63 62 62 61 55 53 53 55 58 62 65 66 68 70 72 74 77 80 82 80 77 71
71 65 55 44 47 47 61 58 55 53 58 69 72 75 75 75 76 73 69 72 72 71 72 74 77 75 74 74 76 78 82 82 81 81 82 83 84 85 87 86 76 70 75 75
74 60 53 49 51 50 51 54 54 52 54 66 72 68 73 76 71 69 74 76 75 77 79 83 86 89 89 89 89 89 91 94 93 92 90 90 91 91 85 81 90 95 96 94
86 68 57 55 54 55 58 54 45 52 55 59 57 61 67 71 74 77 75 78 80 84 88 91 92 95 96 95 94 96 97 97 96 96 97 96 92 92 95 96 97 97 97 96
82 78 71 68 64 59 59 57 49 49 47 51 52 59 63 67 72 72 72 81 84 84 88 88 94 97 97 97 98 97 97 96 96 94 90 91 95 97 97 97 97 96 95 96
80 73 71 68 68 67 67 62 62 65 65 65 62 65 71 69 72 77 80 89 96 97 98 98 93 93 94 96 96 96 97 96 97 94 90 90 93 96 97 97 97 97 96 97
85 77 72 74 82 87 88 84 81 82 78 80 80 78 78 83 87 89 92 88 88 88 89 87 83 90 90 85 88 95 96 97 96 93 95 97 97 97 97 97 97 97 97 97
89 91 91 90 98 96 91 92 90 90 90 89 85 81 80 80 85 84 82 80 80 83 88 97 96 97 93 96 97 96 96 96 96 97 97 97 97 97 97 97 97 98 98 98
87 90 94 90 91 93 92 90 90 89 88 89 88 85 79 77 79 80 80 80 80 84 84 92 96 95 94 96 96 97 97 97 97 97 97 97 97 98 98 98 98 98 99 99
92 89 82 82 96 98 96 93 92 95 98 97 97 97 97 97 97 97 97 97 97 97 97 96 96 96 96 96 97 97 97 98 98 97 97 97 98 98 98 98 95 88 78 69
94 96 96 97 97 96 94 94 94 95 97 96 96 97 97 97 97 97 97 96 97 97 97 97 97 97 97 97 97 97 97 97 96 95 93 90 84 75 63 53 47 43 39 37
95 96 97 97 97 97 97 97 97 97 96 96 96 96 96 96 97 97 97 97 97 97 97 97 97 97 97 97 95 92 88 82 74 62 48 40 38 36 35 33 32 32 34 35
96 96 96 96 97 97 97 97 96 96 97 97 96 96 97 97 97 97 97 97 97 97 97 97 94 90 84 75 64 53 42 35 31 29 28 27 27 28 29 30 30 32 35 37
94 94 94 94 92 90 89 89 88 89 89 90 90 90 91 91 91 93 91 90 87 82 72 60 47 38 31 27 24 22 22 23 23 23 24 26 27 29 30 32 34 36 39 41
81 79 77 76 77 77 76 76 76 76 75 73 72 70 65 60 54 46 37 30 27 25 24 24 22 22 22 22 22 22 23 24 25 26 27 29 31 33 34 35 38 40 42 44
77 77 76 75 76 74 72 68 62 55 48 40 33 30 29 28 27 27 27 26 25 25 24 23 23 24 24 23 23 23 24 26 28 29 30 32 33 34 36 39 41 44 45 47

GFSNGP_prec_cthk_063.txt.gz
RH
81 72 64 61 58 57 57 54 59 52 51 44 42 39 37 48 44 43 41 37 45 47 45 42 42 37 35 29 34 41 45 47 48 59 64 66 63 65 69 81 75 70 74 73
82 79 72 65 56 49 54 58 55 56 52 50 45 43 41 43 42 45 49 46 46 48 44 42 43 47 37 32 34 34 40 43 46 53 57 58 60 63 67 68 70 72 74 73
74 79 86 67 52 63 58 58 59 61 57 52 48 48 44 46 46 45 45 47 46 48 47 45 48 45 42 33 30 27 29 33 43 48 52 58 65 67 65 64 68 69 76 80
82 74 91 70 61 59 58 53 56 56 60 56 51 49 46 46 47 49 46 47 45 48 45 45 45 44 38 34 34 36 33 38 48 56 57 63 66 62 60 61 63 74 81 81
71 74 63 57 67 70 71 56 55 52 56 57 55 51 44 44 42 40 37 37 41 43 45 43 41 43 36 39 39 39 43 48 48 56 61 62 62 63 66 72 80 81 79 79
74 75 71 41 54 55 74 62 58 57 55 58 58 52 47 44 44 45 41 39 40 44 42 41 41 41 39 42 45 43 47 51 49 57 57 60 66 70 77 78 81 77 77 67
77 77 58 47 58 59 89 65 70 64 58 54 53 50 51 48 44 45 44 41 42 42 45 45 41 42 43 44 43 39 40 44 49 50 56 67 72 70 72 74 76 72 64 62
75 72 62 48 61 75 91 82 76 71 63 63 57 55 52 52 52 51 49 46 45 46 48 44 41 42 49 50 44 41 44 45 49 52 58 66 69 71 72 67 60 57 60 65
62 50 41 46 52 63 75 86 81 78 69 63 61 57 56 52 52 53 53 52 50 49 48 46 44 47 53 57 56 53 52 53 53 53 57 62 67 65 61 59 61 63 64 66
60 42 48 49 53 58 72 71 83 79 73 68 67 63 62 59 58 58 60 61 56 57 59 59 61 60 60 61 58 55 56 58 59 59 64 66 63 62 62 62 64 67 70 73
47 60 55 51 54 55 63 63 70 80 77 75 72 68 66 66 67 65 64 68 69 67 63 59 62 62 63 60 58 59 61 62 62 63 64 65 66 67 68 69 72 75 76 79
62 64 62 59 60 60 65 47 69 71 69 62 71 74 75 72 71 73 71 72 78 74 69 76 76 74 72 71 70 71 72 69 70 71 72 74 74 75 77 82 85 88 90 91
76 78 67 64 73 73 66 50 57 76 70 66 61 58 75 77 77 75 77 78 78 77 77 80 80 80 80 81 80 84 83 87 89 90 90 91 93 95 96 97 98 98 97 97
78 76 72 80 86 77 62 58 65 67 64 60 55 57 66 72 74 79 84 89 84 81 83 85 84 81 81 87 92 93 98 99 99 99 98 97 97 97 97 97 96 94 90 90
91 93 92 89 88 81 70 66 62 63 59 56 50 49 56 59 62 69 79 82 83 86 84 86 88 86 90 95 96 94 98 98 98 98 98 98 97 97 97 96 97 97 97 96
93 94 99 96 96 92 85 76 69 67 69 61 52 45 48 54 62 60 63 77 81 87 89 89 93 95 96 94 97 97 97 96 97 97 97 97 96 97 97 97 97 97 96 97
93 92 89 91 94 94 89 82 76 68 69 68 63 60 62 66 72 72 78 88 88 90 92 93 96 95 94 92 94 95 93 91 91 96 97 97 96 96 96 96 96 97 97 97
98 98 96 96 93 90 88 86 83 80 81 81 76 78 86 87 83 82 84 84 87 97 95 96 95 90 88 91 93 92 90 97 97 96 96 96 95 95 97 97 98 98 98 98
94 96 97 97 95 92 90 85 87 88 92 92 89 94 91 90 93 92 93 90 89 88 88 88 88 88 86 85 85 87 88 91 95 96 96 97 97 97 97 98 98 98 98 98
94 96 95 93 92 91 88 90 92 89 93 96 95 96 91 89 92 91 93 91 88 87 86 88 89 89 90 90 91 96 97 97 97 97 97 97 98 98 97 98 98 98 98 98
97 96 93 91 93 94 94 94 91 91 94 96 97 95 91 96 97 97 96 96 97 97 97 96 97 97 97 97 97 97 97 97 97 97 97 97 97 97 95 92 86 77 67 54
95 96 97 97 97 97 97 95 94 96 95 95 94 95 96 97 97 97 97 96 96 96 96 97 97 97 97 97 97 96 96 94 91 88 84 78 71 65 57 49 40 34 31 28
95 91 92 94 93 93 94 94 93 95 95 96 96 96 96 97 97 96 96 97 97 97 97 97 97 95 91 87 83 78 72 66 59 52 44 37 30 26 23 23 23 23 24 26
96 96 97 97 97 97 97 97 97 96 95 96 96 97 97 97 96 96 96 96 96 93 87 81 73 64 55 46 38 31 24 19 18 18 19 20 20 21 22 23 25 26 27 29
97 97 96 96 96 95 94 91 87 83 81 80 79 78 78 75 72 70 64 55 45 35 28 25 22 20 17 16 16 16 16 17 18 19 20 22 23 24 25 26 27 28 30 32
94 92 89 86 81 76 74 71 69 67 63 58 52 44 36 30 27 26 25 24 23 22 20 19 17 17 16 16 16 17 18 20 21 22 23 24 25 27 28 30 31 33 35 37
78 77 75 70 65 58 50 41 33 29 27 26 24 25 25 25 25 25 24 23 22 21 20 18 18 17 17 18 19 20 22 24 25 26 27 28 30 31 32 33 34 36 39 42

GFSNGP_prec_cthk_066.txt.gz
RH
77 75 69 70 69 65 63 55 55 47 50 53 50 50 47 42 39 45 50 47 43 41 42 42 40 39 40 42 39 32 34 37 42 48 50 55 65 70 70 71 71 79 76 80
76 69 65 60 61 64 62 60 53 54 50 52 50 50 52 47 41 37 41 48 45 45 45 47 43 40 43 44 41 35 34 31 32 39 44 49 57 64 74 75 78 79 81 87
75 73 67 62 63 66 62 64 62 57 51 53 51 51 52 51 47 45 40 42 44 46 52 49 47 45 45 47 43 40 39 41 40 36 36 47 56 62 67 75 82 85 80 83
81 73 78 42 54 49 60 56 58 53 52 53 55 53 50 53 54 50 47 47 48 47 48 49 44 43 46 50 48 45 41 36 40 38 40 45 56 64 70 78 79 78 79 77
76 71 54 38 40 46 47 39 53 55 57 53 53 53 45 53 55 53 49 50 47 46 46 49 44 40 44 47 49 49 48 40 42 42 44 51 54 58 62 66 71 75 76 79
73 77 64 30 34 41 43 49 52 67 66 63 62 53 40 47 54 56 51 48 45 44 42 45 47 46 41 43 45 47 47 49 50 48 50 49 53 52 56 62 68 73 73 75
77 79 59 43 41 45 68 55 55 58 67 74 67 62 54 50 52 56 55 51 48 45 43 45 50 50 52 50 47 49 53 51 57 59 49 47 49 53 55 58 65 70 73 73
81 84 68 42 47 48 54 56 62 62 62 73 71 62 60 58 54 54 58 56 51 50 49 46 49 53 58 58 51 50 55 63 70 65 57 54 52 56 58 62 67 69 72 77
65 52 38 41 40 42 46 45 53 65 66 77 74 72 66 63 62 59 59 59 56 58 55 52 53 55 57 57 62 63 63 69 70 67 60 54 59 61 63 66 67 73 80 81
62 40 44 46 40 52 51 50 59 66 66 70 81 77 73 67 65 60 60 62 61 61 59 57 59 61 65 68 71 74 74 72 68 61 64 63 62 64 67 69 75 81 78 75
53 46 48 39 42 55 57 56 64 68 69 70 82 80 80 76 74 70 67 68 70 68 71 71 68 70 74 76 75 76 69 68 70 69 71 74 75 79 81 85 85 82 80 79
52 61 63 56 59 57 60 62 73 75 73 78 79 81 79 72 77 80 74 74 79 75 82 80 77 83 84 82 80 78 78 79 77 80 82 86 90 89 90 91 91 92 94 94
83 83 80 70 72 65 62 76 82 82 78 75 78 85 78 67 63 79 83 83 84 85 88 87 87 86 92 94 89 86 88 91 93 91 94 97 96 97 97 98 98 98 98 98
93 89 81 78 74 74 75 82 87 85 88 81 78 78 72 65 62 64 68 77 91 94 96 95 94 93 95 93 94 92 94 96 98 98 98 97 97 98 97 97 97 97 97 96
91 91 86 83 80 77 82 84 89 87 90 80 76 72 66 61 58 56 61 67 71 81 87 94 94 96 96 96 95 93 97 98 98 97 97 95 97 96 95 95 96 96 96 96
96 98 96 95 91 88 96 96 91 93 93 90 82 72 68 66 59 56 59 65 69 72 75 85 88 90 92 92 93 95 98 98 95 96 96 92 93 95 94 95 96 96 97 96
98 98 99 96 98 99 98 98 98 94 93 91 86 76 70 68 68 68 69 71 69 76 78 80 79 80 92 98 98 97 97 97 97 96 96 96 96 97 96 93 94 96 97 96
97 95 95 95 95 96 96 94 96 95 93 88 85 80 77 77 79 77 79 88 87 84 86 87 88 90 95 97 97 95 95 97 96 91 91 91 90 89 90 92 95 96 96 97
93 91 94 93 93 93 94 93 93 88 85 87 88 85 85 82 84 89 92 93 93 92 94 96 95 93 94 94 96 96 95 94 93 91 92 92 94 96 96 96 97 97 98 98
92 94 96 96 94 94 92 90 88 88 90 91 89 86 88 89 91 96 98 97 95 95 96 96 96 96 94 94 96 94 94 96 96 97 97 96 96 96 97 97 98 97 95 89
92 94 96 97 95 96 96 96 95 92 93 94 96 98 96 97 93 93 96 95 95 94 96 97 97 98 98 96 96 97 97 96 96 96 95 94 92 86 78 71 66 60 55 48
96 95 95 96 97 97 97 97 96 97 97 97 97 97 97 97 97 94 96 97 97 97 97 97 97 97 95 93 89 86 83 79 74 69 64 60 56 51 46 38 31 26 23 21
97 97 97 97 97 97 97 97 97 97 97 97 97 97 97 98 97 96 96 97 97 95 92 88 82 75 70 65 59 55 50 44 38 32 28 24 20 18 17 17 18 19 20 21
97 97 97 97 97 97 97 97 97 96 97 97 97 97 95 93 91 88 85 80 71 61 51 44 37 31 26 21 18 15 14 13 14 14 15 16 17 18 19 20 21 22 23 24
97 97 98 98 97 97 97 96 95 94 91 87 81 74 64 54 42 36 29 24 22 19 16 15 14 13 13 13 13 14 14 15 16 17 18 19 20 21 22 23 24 25 27 28
98 98 98 97 94 92 86 75 63 52 41 31 27 25 24 24 24 23 22 20 19 17 15 15 14 14 15 15 16 16 17 18 19 21 22 23 24 25 26 26 27 28 29 30
97 92 81 67 55 45 37 29 24 23 23 23 22 24 24 24 23 23 22 20 18 16 16 15 16 16 17 18 19 20 21 22 24 25 26 26 27 28 28 30 30 31 32 34

GFSNGP_prec_cthk_069.txt.gz
RH
61 64 64 61 61 58 58 60 64 60 56 54 51 49 50 52 52 48 40 40 41 39 43 44 46 44 44 43 42 41 34 31 29 31 35 44 52 55 58 61 67 69 69 78
70 63 62 58 56 56 55 59 57 58 56 55 53 49 49 51 53 55 51 43 42 43 40 40 42 43 47 48 45 45 39 34 33 33 31 32 38 42 48 53 61 68 72 74
65 70 71 61 54 50 51 51 48 53 53 52 51 49 45 49 52 55 55 50 42 39 40 42 41 45 48 50 48 48 48 44 39 36 33 34 34 35 39 48 58 63 72 79
72 74 66 36 41 51 52 43 41 45 44 51 50 47 47 51 54 56 57 56 51 47 45 41 43 45 48 50 50 51 50 49 47 48 44 36 34 36 41 49 56 61 68 74
66 71 49 38 36 41 45 43 45 50 52 50 50 53 51 51 50 53 56 58 56 51 50 50 48 47 48 50 48 50 50 49 48 52 50 44 40 39 43 54 59 61 65 68
80 72 60 37 37 39 40 40 43 48 54 57 53 56 59 55 49 49 54 54 55 54 52 50 46 46 46 45 44 43 44 47 49 54 58 53 50 50 50 51 55 57 60 63
79 74 50 42 45 47 48 42 43 43 49 57 60 65 63 65 58 53 52 53 55 56 53 52 49 49 46 49 49 48 53 57 57 59 61 61 65 66 58 53 54 54 56 60
74 73 61 46 52 52 40 34 37 37 40 51 60 66 69 71 67 59 54 56 59 59 57 55 52 50 52 57 57 57 61 65 68 73 78 76 77 80 75 59 54 57 60 62
63 54 48 50 57 47 37 37 40 42 42 50 57 63 69 74 74 70 60 58 64 63 64 61 60 58 59 61 66 65 68 72 77 76 74 82 85 80 71 64 61 62 64 65
53 47 43 39 47 51 50 46 44 44 47 55 56 61 65 71 73 79 74 68 69 71 70 64 65 64 66 69 73 72 72 73 75 80 82 82 79 73 71 71 78 76 83 79
49 46 46 45 56 54 49 46 48 50 51 56 63 70 73 77 78 87 83 79 74 77 78 72 73 73 73 70 72 76 77 80 82 82 78 76 79 80 82 82 85 86 91 94
51 59 62 59 58 58 62 59 53 55 59 61 75 84 85 78 89 90 88 86 85 84 86 88 87 81 82 81 82 84 84 83 82 84 84 83 87 89 89 91 95 97 98 98
62 62 65 66 71 72 71 67 65 61 65 69 77 84 91 95 86 88 84 84 83 84 92 98 97 91 89 89 92 93 96 93 91 94 96 96 96 98 99 98 96 98 98 98
64 64 66 72 72 78 77 76 74 73 73 80 88 97 96 92 91 84 81 74 72 77 78 91 97 98 100 99 99 99 98 98 96 99 98 96 98 98 98 98 98 96 97 97
66 68 75 76 78 82 81 80 80 77 84 87 95 96 98 96 92 84 83 78 75 74 74 74 75 91 95 97 97 99 99 98 97 97 98 98 98 97 97 97 96 97 97 97
76 79 83 84 85 86 88 90 90 87 92 90 92 95 95 92 89 81 76 75 75 74 75 78 81 83 84 89 96 98 98 97 98 98 97 97 97 97 96 96 96 95 95 96
81 83 85 88 91 93 94 95 97 97 97 98 97 99 97 97 95 92 82 73 70 75 76 73 75 79 78 90 93 89 91 89 94 97 97 97 97 96 96 96 96 96 94 93
89 87 87 96 95 96 97 97 97 98 98 96 97 97 94 94 92 90 88 86 84 83 83 86 94 91 89 89 89 92 91 91 93 96 97 97 97 97 97 97 96 95 96 96
80 83 86 93 94 93 95 97 98 97 97 96 95 92 88 90 91 90 89 90 88 88 92 93 94 94 96 97 96 97 97 96 96 95 96 96 96 97 97 98 97 96 96 96
81 83 87 93 94 96 97 97 97 96 94 93 92 91 92 94 93 94 93 91 91 91 92 95 96 96 96 97 96 96 95 97 96 96 96 96 96 96 97 96 95 88 77 66
88 87 89 93 94 95 97 97 95 92 93 96 96 95 94 95 96 97 95 93 96 96 97 97 95 95 97 98 96 96 94 93 92 88 82 74 67 63 59 55 51 47 42 36
91 94 96 96 96 97 97 96 96 96 97 97 97 97 96 97 97 96 95 97 98 98 96 93 88 83 79 74 69 64 60 57 53 50 47 44 40 35 30 26 22 20 19 18
97 97 96 97 97 97 97 97 97 97 97 97 97 97 97 97 97 95 92 87 80 72 65 58 54 48 44 39 35 32 29 26 24 23 22 21 18 16 16 17 17 18 18 19
97 97 97 97 97 98 97 97 98 98 97 97 94 91 85 77 67 58 52 47 40 33 28 26 24 22 19 17 16 15 15 15 14 15 15 16 17 17 18 19 20 21 22 23
97 97 98 98 97 97 97 97 95 90 82 71 61 51 44 38 33 31 26 22 19 16 14 13 13 13 14 14 14 15 15 16 17 17 18 19 20 21 22 23 24 24 25 25
98 98 98 98 96 92 83 73 60 50 41 34 31 28 25 22 21 20 19 16 14 14 14 14 14 15 16 16 17 18 18 19 20 20 21 22 23 24 25 26 27 27 28 29
96 94 85 73 61 50 39 30 25 24 24 23 21 23 22 22 21 19 17 16 16 16 16 17 17 18 19 19 20 21 21 22 23 24 25 26 27 28 29 30 30 31 32 33

GFSNGP_prec_cthk_072.txt.gz
RH
63 59 58 59 55 53 56 58 61 58 59 56 52 47 47 46 48 50 54 48 45 47 48 50 52 55 51 48 45 46 47 42 37 40 41 43 46 47 49 51 51 53 54 59
59 59 52 50 52 50 48 49 54 59 53 54 52 48 45 45 47 48 51 53 49 46 52 51 52 53 55 53 49 49 45 43 43 41 41 42 44 48 53 53 56 58 55 60
60 69 66 60 51 47 48 49 56 58 50 48 44 39 41 43 44 47 46 48 54 51 48 53 50 49 50 49 53 51 48 46 45 46 45 44 43 42 40 43 48 51 55 63
61 58 55 38 38 46 54 53 54 46 48 47 44 43 40 42 45 45 47 48 50 54 50 47 45 46 47 50 50 51 54 53 49 48 51 51 51 51 52 41 42 47 53 61
56 49 36 30 32 34 33 37 44 43 46 54 50 45 48 49 48 47 44 44 48 52 55 52 48 43 43 46 47 52 53 56 56 57 54 55 54 54 54 53 45 45 53 63
60 50 51 40 39 37 35 42 42 46 50 51 52 55 54 52 55 54 50 45 44 49 53 56 54 50 50 50 52 55 57 58 59 58 60 59 54 52 55 58 57 55 51 56
61 64 55 48 42 44 49 61 45 43 44 45 48 53 52 49 53 59 61 56 49 49 53 57 58 54 53 55 52 57 56 59 57 56 59 60 61 61 59 64 67 70 70 61
68 63 69 49 50 53 62 48 39 36 39 40 40 42 51 52 52 58 61 65 63 57 52 54 57 63 59 57 55 56 56 59 59 59 61 64 69 74 84 82 83 79 82 77
58 61 60 62 60 58 55 47 43 40 38 41 41 42 49 52 53 56 64 70 72 69 67 65 68 69 64 60 58 60 63 63 66 68 71 74 78 83 80 88 85 83 82 85
59 54 55 53 51 51 47 46 44 44 41 42 42 46 49 52 53 58 63 71 78 79 77 74 72 70 72 72 71 71 72 72 77 79 81 86 89 87 83 82 88 85 83 79
53 53 54 48 50 50 46 48 46 48 48 45 46 49 53 54 57 66 71 79 83 89 86 87 85 81 78 78 78 81 82 81 81 83 83 84 82 85 87 87 89 85 81 84
58 60 58 51 51 54 55 56 52 53 52 50 50 51 58 61 64 75 83 91 95 90 94 96 93 87 84 81 81 83 82 81 81 83 83 83 85 85 87 86 86 84 90 93
64 62 61 62 61 60 65 65 63 61 59 56 55 58 59 64 68 80 87 93 95 93 88 96 92 92 93 94 93 92 91 89 87 87 87 89 93 95 97 96 95 98 99 97
66 64 62 65 63 61 63 65 64 62 65 66 64 68 72 72 74 82 95 99 92 88 93 89 86 83 92 94 97 99 99 98 98 97 97 98 99 98 98 98 98 98 97 97
73 71 68 67 68 69 69 71 72 72 75 75 73 76 78 81 85 95 98 99 93 88 89 91 91 89 84 86 89 91 98 98 98 98 98 98 97 98 97 97 98 97 97 97
75 70 76 76 74 73 78 79 79 81 82 80 82 88 96 98 91 95 95 95 95 94 91 90 92 93 86 84 87 82 87 94 97 97 97 98 96 97 97 97 96 96 97 97
82 76 75 80 80 80 83 85 87 88 89 89 93 97 97 97 98 97 98 98 98 96 95 92 91 90 91 91 89 92 93 87 97 97 97 97 96 97 96 96 96 97 97 97
87 80 78 77 83 87 88 94 95 95 96 95 97 97 97 97 97 97 93 93 94 94 93 94 95 95 91 92 92 93 94 92 91 91 93 96 96 96 96 96 97 97 97 97
83 81 80 81 87 89 90 92 94 94 95 97 97 97 97 97 97 96 93 90 88 88 92 94 93 92 91 92 93 91 90 92 96 97 95 95 96 96 96 97 97 97 97 97
87 85 86 81 81 87 89 93 95 97 97 97 97 97 97 97 97 96 95 92 92 92 93 95 94 93 93 94 96 95 96 96 96 96 96 96 97 97 96 94 93 86 76 68
96 91 88 88 88 89 89 94 96 96 97 97 97 97 97 96 97 97 96 95 94 95 96 94 90 88 85 83 82 80 77 74 71 68 67 65 62 59 56 53 50 47 43 39
97 97 95 95 95 97 97 97 97 97 97 97 97 97 97 97 96 96 93 92 87 83 77 71 65 60 55 52 49 46 44 41 39 37 35 32 30 27 25 26 26 27 27 23
97 97 98 98 97 97 97 97 97 97 97 97 97 97 96 94 88 79 68 59 54 48 45 42 38 35 33 31 29 28 26 24 23 22 22 21 19 17 16 16 16 17 17 18
98 98 98 98 98 98 98 98 98 98 97 93 84 74 69 63 57 53 44 38 34 30 26 24 22 21 21 21 21 20 20 21 20 19 19 18 18 18 18 18 19 19 20 20
98 98 98 98 98 98 98 97 92 82 73 65 58 53 46 42 38 34 27 24 23 22 20 18 18 19 19 18 17 17 16 16 16 17 18 18 19 19 20 20 21 22 23 24
98 98 98 98 98 92 83 75 67 61 56 48 42 36 32 29 27 24 22 21 20 19 17 17 16 15 15 16 16 16 17 18 18 19 19 20 21 22 23 24 25 26 26 27
90 90 85 75 67 59 55 52 46 40 33 29 27 25 23 20 18 17 16 16 16 17 17 17 17 17 18 18 19 19 20 20 21 22 23 24 25 27 28 29 30 30 31 32

GFSNGP_prec_cthk_075.txt.gz
RH
74 75 64 65 64 59 58 61 68 68 66 60 58 59 58 59 58 56 54 54 54 51 51 52 52 51 53 56 58 58 58 54 48 52 54 52 50 53 54 52 48 48 51 53
78 66 65 63 62 61 57 56 55 54 54 58 56 54 45 43 48 50 50 51 54 57 55 55 55 57 58 59 57 58 58 53 53 54 53 49 47 48 50 53 54 53 52 51
66 59 59 60 48 46 48 53 53 55 61 55 57 47 43 41 41 43 43 45 51 52 57 57 57 60 59 59 61 61 56 57 56 55 53 52 52 51 50 50 51 50 52 51
56 60 65 53 55 55 58 58 55 52 56 52 52 48 41 41 44 40 41 42 42 47 51 54 57 56 58 60 63 60 56 57 56 54 52 53 53 53 53 53 51 50 49 51
60 54 46 42 38 32 36 39 50 55 62 61 54 45 42 55 50 45 44 46 45 44 47 51 54 58 58 56 59 58 59 59 57 57 54 54 55 57 57 60 58 57 59 59
56 55 54 40 46 37 39 46 54 52 53 49 43 43 47 53 51 47 46 48 48 52 49 52 55 55 57 58 58 58 55 57 61 64 62 61 61 64 61 60 58 57 58 62
62 59 53 59 53 45 56 64 65 57 49 49 49 48 43 39 42 46 48 48 48 53 57 56 54 54 59 64 64 62 57 59 64 67 69 70 70 70 67 64 61 63 64 67
68 77 62 48 54 56 68 67 67 62 52 41 38 39 42 40 42 46 43 44 47 51 57 62 63 59 58 64 69 67 64 64 69 70 73 77 76 69 70 71 70 71 75 81
59 57 61 62 70 71 63 64 64 55 43 41 38 37 38 46 47 41 41 41 43 49 60 65 67 72 71 67 70 74 71 69 70 70 71 75 76 80 81 79 80 82 89 87
89 67 75 74 62 64 64 62 59 54 46 39 40 41 40 43 48 47 45 44 44 48 53 68 76 81 79 78 77 80 81 80 78 78 77 80 81 86 84 87 94 97 94 95
65 68 66 68 63 59 56 51 52 48 46 45 46 47 46 44 43 46 48 51 51 52 58 66 75 84 93 92 88 88 90 89 89 88 91 87 94 95 97 96 98 96 95 98
73 79 74 80 70 59 52 52 53 51 52 52 52 50 50 49 48 49 49 50 51 55 57 67 82 84 94 96 95 95 95 95 93 93 96 90 96 98 98 98 98 99 96 98
80 85 80 66 59 58 58 57 57 60 58 57 57 58 56 54 55 54 57 58 61 59 62 71 87 91 96 98 97 99 98 99 99 99 98 98 99 96 95 97 96 94 98 98
74 70 71 70 66 63 62 59 59 60 58 59 60 60 60 62 63 63 65 68 73 72 74 78 88 91 86 97 98 97 95 97 97 99 97 98 97 97 97 96 96 96 98 98
82 81 78 75 70 66 67 68 68 67 67 65 66 65 65 68 67 71 77 80 87 95 98 97 94 95 89 85 90 98 95 98 97 94 95 97 98 97 98 98 97 97 97 97
84 83 81 78 74 73 74 73 69 70 71 72 72 75 75 73 75 79 91 97 98 96 93 96 93 92 93 93 89 88 92 95 97 94 96 97 95 97 97 97 96 96 97 97
84 82 82 81 81 78 72 73 72 76 79 85 84 85 83 86 88 96 97 97 97 97 97 96 97 97 93 93 94 95 95 95 97 97 97 98 97 95 96 97 97 96 96 96
83 83 84 84 84 85 82 76 77 83 86 91 92 93 90 95 96 96 97 96 96 97 95 93 92 92 91 92 92 94 95 95 96 97 97 97 96 95 96 96 96 96 97 96
78 81 85 84 81 86 81 79 81 88 91 93 93 95 95 96 95 96 96 96 96 97 95 95 95 93 93 93 93 94 94 95 95 94 95 97 97 96 96 96 96 97 97 97
85 85 86 88 88 87 84 85 90 88 88 94 95 96 96 96 96 97 97 97 98 97 95 93 91 88 89 90 91 92 94 94 95 95 96 95 94 94 92 90 86 80 72 64
92 90 91 93 91 90 89 92 90 87 91 93 96 97 97 97 96 97 98 97 92 89 84 80 77 75 68 69 66 66 65 62 58 55 53 50 48 45 43 41 39 38 37 35
95 94 95 96 96 97 95 94 93 94 95 97 98 98 98 98 96 90 87 86 75 65 58 53 49 46 45 47 46 42 41 40 39 37 35 33 32 31 30 30 30 30 30 31
98 98 98 98 98 98 98 97 98 98 98 98 98 97 94 87 78 71 63 54 49 44 41 36 34 32 31 35 34 33 32 31 30 30 30 30 30 29 28 28 26 25 23 22
98 98 98 98 98 98 98 98 98 98 98 92 82 76 71 66 61 57 50 38 34 32 30 27 25 23 24 29 30 29 30 30 29 29 27 26 24 24 23 20 22 24 21 20
98 98 98 98 98 98 98 98 94 85 77 70 67 61 57 52 46 40 36 29 25 29 24 23 23 23 25 24 23 25 23 17 18 24 24 24 24 25 24 23 20 19 20 21
95 95 96 97 98 97 91 85 79 72 67 61 57 52 47 44 39 35 30 25 24 25 26 20 17 23 24 21 23 21 25 23 25 23 24 26 26 27 24 23 23 24 24 25
89 89 89 86 80 73 69 68 67 62 53 48 43 37 32 29 27 26 26 25 25 25 25 25 23 18 19 21 26 26 27 28 23 22 24 25 26 26 25 26 27 28 29 30

GFSNGP_prec_cthk_078.txt.gz
RH
60 81 81 86 85 81 90 84 82 74 75 74 71 67 64 61 59 57 58 57 57 58 57 60 60 62 58 57 58 58 58 56 50 52 55 53 52 53 54 54 53 57 56 50
71 67 78 72 69 67 66 73 68 70 77 67 71 64 63 59 53 59 61 61 61 61 59 60 63 60 64 61 58 58 58 58 60 58 59 57 55 56 56 51 48 53 52 54
68 67 71 66 56 54 54 57 53 54 51 59 59 60 61 51 49 50 49 49 52 55 57 56 59 64 60 59 65 63 58 57 61 62 61 60 58 60 58 54 54 52 55 57
70 70 81 57 55 54 50 50 53 58 60 68 61 66 59 57 60 53 43 42 43 44 47 50 52 56 60 58 58 64 70 67 63 64 62 61 61 59 58 58 58 59 59 58
63 59 57 56 52 44 50 54 56 57 64 68 59 55 60 57 54 50 47 48 47 47 44 44 47 51 53 57 60 60 60 66 70 70 71 71 67 64 64 65 63 60 63 63
61 60 54 37 36 48 41 41 59 63 62 64 62 63 69 65 58 56 53 50 47 46 42 41 45 50 54 57 59 59 58 57 60 67 66 69 70 71 70 69 69 68 68 68
63 71 53 39 54 50 55 65 63 64 63 55 50 50 45 49 48 54 46 41 37 38 38 41 43 47 55 56 58 63 65 64 63 67 71 70 68 73 76 77 72 71 71 73
72 71 64 58 58 80 77 74 76 76 71 60 56 45 39 40 49 51 45 38 35 37 36 38 43 46 47 52 63 62 66 66 68 70 74 77 75 76 80 79 81 80 81 78
67 58 61 61 67 85 75 86 84 73 69 69 60 45 44 39 45 42 39 40 40 40 38 38 37 39 44 52 57 68 71 67 74 78 81 80 81 80 81 80 86 85 88 90
76 66 69 85 83 72 82 78 72 67 69 67 62 53 47 45 44 44 42 41 40 40 40 40 40 42 43 46 55 62 71 80 81 81 83 87 88 89 89 92 91 93 95 94
93 89 91 88 92 89 73 65 64 59 56 51 49 48 48 47 46 46 45 45 44 44 44 43 45 45 44 49 51 59 69 78 90 91 94 93 94 92 94 92 93 96 95 95
95 93 95 94 95 88 80 68 56 51 48 47 48 52 55 54 55 53 51 49 48 49 49 49 50 53 54 53 55 61 76 85 92 97 98 97 96 97 98 97 96 98 99 97
87 89 89 87 82 79 75 61 53 51 51 52 53 54 53 54 53 52 52 50 49 51 53 53 55 59 62 63 62 62 72 84 91 96 95 95 98 99 93 94 95 92 91 93
88 84 84 81 77 71 66 62 58 58 59 59 57 56 58 55 53 54 54 53 55 57 57 62 66 70 81 80 79 78 74 85 91 97 95 95 95 97 94 97 98 94 98 97
89 86 81 79 74 71 70 67 65 66 65 61 59 60 61 61 60 59 61 62 64 63 66 76 83 92 97 98 97 94 89 91 93 95 97 95 93 97 97 96 97 95 95 96
87 85 84 83 80 81 78 76 73 70 67 66 66 65 66 67 67 68 68 70 70 74 80 91 93 96 97 98 97 93 90 93 97 97 96 97 96 96 98 95 97 95 97 98
84 82 83 81 82 83 80 78 76 75 74 72 69 70 71 74 77 77 79 80 80 84 91 95 96 97 96 97 97 92 92 94 94 95 96 97 98 97 95 93 94 96 96 96
82 79 79 78 76 76 77 75 74 74 78 80 78 76 79 80 85 88 88 88 90 94 94 96 96 97 97 97 97 94 92 91 91 93 94 93 94 94 93 91 96 96 95 96
76 73 73 74 75 75 76 76 78 78 78 82 80 79 83 88 89 91 92 94 95 93 96 96 96 97 97 97 97 97 94 92 92 92 92 92 93 95 95 94 95 95 94 93
80 83 84 83 83 86 86 87 88 88 87 88 87 87 89 89 90 93 95 94 93 91 87 87 86 84 84 83 83 82 82 81 79 77 76 74 73 70 65 61 56 49 44 39
84 86 88 89 91 91 90 90 91 92 93 94 93 94 93 94 91 92 94 91 87 82 76 69 65 63 59 55 51 50 49 47 46 45 42 39 37 35 33 32 31 31 31 31
95 97 96 95 97 97 97 96 96 96 97 96 97 95 93 93 91 81 75 69 61 55 52 48 45 44 45 44 41 38 36 35 34 32 31 31 31 30 30 29 30 29 29 28
97 98 98 97 98 97 97 97 97 98 98 98 98 96 88 80 74 68 61 55 51 46 44 40 36 36 37 37 37 37 34 33 32 33 32 31 31 30 27 28 27 24 21 23
98 98 98 98 98 98 98 98 98 98 97 90 84 79 76 70 67 61 50 48 47 40 35 34 33 32 33 33 32 28 27 31 30 29 28 27 26 26 25 23 23 23 23 24
97 97 97 97 97 97 97 97 97 93 85 79 75 70 65 59 53 50 47 44 40 43 34 28 27 31 28 27 24 27 25 22 22 23 25 25 26 26 26 24 23 22 24 24
80 81 81 85 89 89 89 87 85 81 77 69 62 58 55 52 48 45 42 38 35 35 32 26 20 18 20 24 24 23 26 25 21 21 26 27 27 28 25 23 23 24 24 24
77 79 80 79 78 72 70 69 70 65 60 59 55 50 46 42 38 36 34 31 29 27 26 26 26 24 22 24 25 27 28 29 27 25 25 27 27 27 25 24 25 26 27 28

GFSNGP_prec_cthk_084.txt.gz
RH
46 47 48 67 75 92 95 97 98 88 92 91 90 95 92 94 88 80 78 76 70 68 70 71 70 69 70 73 73 74 72 67 64 67 64 64 56 51 49 48 49 51 55 58
45 37 43 58 67 76 97 93 96 90 97 90 95 95 95 93 89 84 82 80 79 78 70 67 70 69 66 65 72 77 82 83 80 78 74 71 68 60 59 58 58 58 57 56
56 45 47 61 72 72 85 86 93 91 85 91 95 92 93 93 91 90 85 81 75 73 71 68 65 62 62 62 65 67 68 71 78 82 80 76 76 75 72 68 68 67 67 67
79 59 56 46 62 68 79 79 80 78 84 84 89 91 88 90 89 86 82 81 77 70 63 60 59 57 57 58 60 64 66 68 70 71 78 82 82 78 74 76 74 73 73 71
71 68 50 37 60 68 68 77 72 69 79 86 78 78 85 89 86 83 80 77 71 63 57 48 45 44 44 44 44 46 51 57 61 60 65 71 77 78 80 83 80 78 76 78
69 71 69 39 66 67 70 83 74 73 76 72 69 78 88 86 82 80 80 75 70 64 58 49 38 36 37 36 35 32 33 36 41 49 55 57 61 65 66 71 74 79 82 83
70 72 61 34 59 70 85 87 81 79 80 75 68 68 83 89 88 84 72 61 55 47 43 39 38 32 30 33 33 32 32 33 34 34 35 38 46 52 56 59 64 70 77 81
74 69 63 35 56 66 80 85 80 78 77 75 68 70 72 82 78 69 65 60 51 43 38 35 31 28 26 27 28 29 29 29 30 29 27 27 29 36 43 49 54 59 67 73
85 74 71 68 65 70 79 75 79 84 85 82 75 72 68 64 65 66 65 55 44 40 35 33 31 29 28 29 32 33 31 30 30 29 29 28 26 25 30 38 49 55 62 68
87 90 86 89 92 82 83 83 83 93 90 86 85 84 87 81 71 71 65 54 43 40 35 34 33 31 31 33 35 35 34 34 34 33 31 30 30 31 30 33 39 52 60 69
99 98 97 95 93 91 96 93 81 84 82 82 78 75 72 70 68 63 53 46 40 37 37 37 36 36 37 36 36 36 37 37 37 38 37 37 35 36 37 39 42 49 57 66
98 98 96 99 97 96 98 95 87 87 84 77 71 69 65 64 61 55 50 46 42 41 41 40 39 39 40 39 38 39 41 44 44 45 47 46 45 47 48 49 53 56 60 65
98 98 98 98 98 97 94 91 89 88 83 77 72 68 60 57 57 56 52 49 48 47 46 44 43 43 44 45 46 46 48 49 52 53 54 56 58 59 60 62 67 72 72 73
96 95 96 98 96 93 90 89 85 85 81 76 74 72 69 64 58 56 53 52 51 50 50 51 51 52 53 53 53 53 54 55 57 61 66 67 69 71 76 79 81 89 86 85
92 90 91 90 88 88 89 87 83 79 77 76 74 73 72 69 66 64 62 61 60 59 58 57 57 58 59 59 59 60 62 64 67 70 75 81 84 84 82 83 86 91 95 96
88 89 86 86 87 85 83 80 78 77 73 73 74 75 75 74 71 70 68 67 67 66 65 65 65 65 65 66 67 67 69 72 75 79 82 86 88 88 88 88 87 89 92 94
85 84 85 88 88 84 81 79 77 75 73 73 73 74 76 78 77 77 76 75 73 71 72 71 70 70 71 75 76 78 78 80 83 86 92 94 93 94 94 93 91 90 90 90
91 91 88 82 79 78 77 77 76 76 75 75 74 74 73 73 75 76 76 76 76 75 74 76 76 76 80 81 83 87 88 89 90 92 93 93 92 92 91 91 90 88 86 83
88 88 85 81 79 79 79 79 79 78 78 77 77 77 77 78 79 80 80 82 81 78 78 76 76 77 76 76 76 78 76 75 75 75 73 71 69 67 65 62 58 53 47 41
78 77 77 76 77 78 78 80 81 84 85 85 86 88 88 90 91 91 90 89 84 83 80 73 67 63 61 61 60 58 55 53 53 55 55 55 53 48 44 41 38 36 34 32
76 79 80 82 83 85 87 87 90 91 93 93 94 94 95 95 95 88 80 74 71 70 68 66 62 60 58 58 55 51 48 47 46 45 44 42 41 40 39 38 37 34 32 31
90 92 94 94 95 97 97 97 97 98 98 97 97 98 97 91 84 77 72 69 68 65 62 60 59 58 56 52 49 48 47 46 43 42 40 39 38 38 37 36 35 34 32 29
66 70 75 81 87 93 97 97 98 98 98 98 98 92 86 82 78 74 70 68 64 61 59 58 57 54 51 49 48 47 43 40 38 37 36 35 33 31 30 29 27 27 26 25
64 65 67 68 70 74 77 78 80 80 80 80 80 80 80 79 73 68 66 64 61 59 57 54 51 49 48 46 42 39 38 37 35 33 31 30 29 27 25 23 21 20 20 21
67 68 69 70 71 73 76 79 80 78 73 66 64 63 62 60 56 55 54 56 58 56 54 52 48 44 42 40 38 35 33 32 30 29 27 24 22 22 22 22 22 22 22 22
69 70 70 71 70 70 71 74 75 70 65 61 56 52 50 49 48 48 48 47 45 42 40 39 37 34 32 29 27 26 25 24 24 24 24 24 24 25 25 24 25 25 25 25
64 63 63 65 65 66 64 59 55 53 52 50 44 39 36 35 34 34 34 34 33 33 32 30 30 29 29 28 27 27 26 26 27 28 28 28 27 27 27 28 27 26 25 26

GFSNGP_prec_cthk_087.txt.gz
RH
51 52 56 52 52 54 79 89 99 86 90 83 91 89 94 97 97 92 85 80 82 83 80 82 81 83 84 84 81 79 78 79 78 78 76 77 72 67 59 55 54 55 56 56
52 46 42 43 38 43 62 80 89 90 92 79 83 87 95 96 98 95 93 89 85 81 74 75 75 78 79 79 77 80 81 83 83 82 82 81 83 81 78 70 65 65 62 64
58 52 48 48 36 50 60 81 85 94 96 88 88 89 94 96 98 96 96 94 89 84 77 77 71 68 72 74 72 70 70 73 77 81 81 81 80 82 83 84 82 75 74 76
66 53 59 41 37 51 58 74 80 80 87 94 93 95 98 98 98 98 97 95 91 87 82 76 66 64 67 66 66 68 67 69 71 72 70 74 77 79 83 85 86 85 83 83
59 57 46 38 39 52 63 72 77 76 79 96 94 90 95 98 97 98 97 94 89 86 80 72 64 56 52 51 51 51 51 52 54 56 60 61 65 67 68 74 81 85 85 85
64 67 60 36 38 52 58 69 75 73 75 83 93 92 95 97 98 97 96 92 89 82 72 63 58 54 49 46 41 39 39 38 38 38 37 38 44 47 49 52 61 71 75 80
69 70 54 36 35 46 69 81 83 83 84 84 87 86 92 90 96 97 94 86 73 68 64 59 53 50 45 40 36 37 34 33 34 35 34 32 28 28 31 34 38 44 52 59
80 83 72 48 40 47 63 89 93 92 94 95 95 94 94 85 83 81 78 75 70 65 62 57 52 47 44 38 36 35 33 31 29 27 24 23 22 22 22 22 24 24 26 33
83 82 82 77 63 57 62 86 94 92 97 97 96 94 84 79 70 68 69 69 68 64 67 56 48 46 43 39 35 32 30 29 29 28 28 26 24 24 24 23 24 26 27 28
99 91 88 84 76 73 73 78 88 95 94 96 97 97 97 97 92 89 83 74 64 54 52 50 41 36 34 35 37 36 34 34 33 33 32 30 30 30 29 30 31 32 34 36
98 94 95 98 92 95 95 89 82 88 93 93 92 94 95 91 85 77 73 67 63 57 53 47 41 38 37 37 37 38 38 37 37 35 34 34 35 36 36 38 38 39 40 42
98 98 98 98 99 99 97 97 94 96 94 90 88 87 86 81 78 73 70 67 62 58 56 50 47 44 43 42 42 42 42 43 42 41 41 41 42 42 42 44 44 44 45 48
98 98 98 97 98 98 97 97 95 94 94 93 89 86 83 81 77 72 66 61 58 57 56 55 52 49 48 47 47 46 46 47 47 47 47 47 48 48 50 52 50 50 51 53
96 98 97 97 97 93 90 89 87 86 85 82 84 83 82 80 77 72 69 67 66 63 59 57 56 55 54 53 52 51 51 52 53 53 54 55 55 56 56 57 58 59 61 64
93 93 93 93 88 85 84 83 80 82 82 80 78 78 77 78 76 74 73 72 69 67 65 64 63 61 59 58 57 57 57 57 58 59 60 62 63 64 64 64 65 66 68 70
86 86 88 87 86 84 82 78 77 78 75 73 72 71 68 68 69 69 69 70 70 69 67 65 64 63 63 62 62 62 63 64 66 67 69 70 71 71 72 73 74 75 77 81
86 81 81 83 88 87 82 79 78 75 72 71 70 70 71 71 69 68 67 68 68 68 67 67 68 69 69 69 69 68 68 70 72 75 77 77 78 78 79 80 81 84 88 89
80 81 85 85 84 81 79 77 77 78 78 79 80 80 78 77 76 75 75 75 75 74 73 72 73 73 71 70 68 69 70 70 69 70 71 71 74 76 76 75 74 72 69 63
76 77 79 79 79 80 78 78 78 78 79 81 81 81 80 79 79 78 79 79 80 78 75 72 69 64 61 61 58 58 58 58 58 58 62 64 62 62 60 55 51 48 45 43
68 70 71 72 73 74 74 74 73 74 75 76 77 78 79 81 82 83 84 83 81 78 70 65 61 58 55 52 51 52 52 53 54 54 55 54 51 48 45 43 41 40 39 38
75 77 80 83 84 86 87 88 89 90 91 92 93 94 95 94 91 85 80 75 74 73 71 67 64 63 63 61 58 56 55 53 51 50 49 48 47 46 43 41 39 38 37 36
65 64 61 63 66 69 74 79 84 89 92 95 96 96 92 87 82 79 77 75 72 69 68 66 64 62 59 57 57 55 53 50 49 48 47 46 43 41 39 38 36 35 34 32
57 57 60 62 64 65 66 67 69 72 74 77 78 76 75 73 72 73 73 71 69 68 67 63 60 59 58 57 54 51 49 48 47 45 44 42 39 37 36 34 32 30 28 28
60 63 65 66 69 70 71 72 72 72 71 68 67 65 63 61 58 55 58 58 56 53 52 53 55 55 53 52 50 49 47 43 40 38 38 36 35 32 30 29 28 26 24 21
61 63 66 68 70 72 71 71 70 70 69 66 62 59 55 53 51 49 49 49 50 50 48 47 46 44 43 41 41 40 40 39 36 34 31 29 28 25 22 21 21 22 22 23
62 63 64 65 64 63 64 65 66 64 60 57 54 50 44 42 41 39 38 38 38 37 35 33 32 30 29 27 25 25 24 23 23 23 23 23 23 23 24 25 26 25 25 25
58 55 55 55 56 56 55 53 49 48 47 46 45 43 39 36 35 35 35 35 35 35 34 34 33 32 31 29 27 26 26 24 24 24 25 25 26 27 28 28 28 27 26 26